Probability
24 24 23 19 15 14 14 13 12 11 11 10 10 9 5 3 4 4 4 4 4 4 5 6 6 6 5 3 1 0 0 0 0 0 0 0 0 0 0 1 0 0 0
26 27 27 24 21 20 19 18 20 19 16 12 11 11 9 7 6 6 5 5 5 6 6 6 6 6 6 5 2 0 0 0 0 0 0 0 0 0 1 1 1 0 0
28 29 29 29 30 30 27 28 30 29 23 17 14 14 13 12 12 11 9 8 8 8 7 6 7 7 8 8 6 3 1 0 0 0 0 0 0 0 1 1 1 0 0
30 32 32 34 38 39 39 38 39 34 27 22 20 18 16 16 16 16 13 11 11 11 10 9 9 8 8 8 7 5 3 1 0 0 0 0 0 0 0 0 0 0 0
42 41 41 44 47 48 49 49 47 38 30 27 25 21 18 15 13 14 14 14 16 16 16 15 12 8 5 4 3 2 2 1 0 0 0 0 0 0 0 0 0 0 0
59 55 54 57 57 56 56 56 53 46 39 36 33 27 20 13 8 6 9 13 18 20 20 18 14 6 2 1 0 0 1 1 0 0 0 0 0 0 0 0 0 0 0
68 67 67 67 65 63 61 60 59 55 50 45 41 35 26 15 6 2 3 8 13 17 19 19 15 7 3 2 2 1 1 0 0 0 0 0 0 0 0 0 0 0 0
70 71 72 72 71 69 67 65 64 62 57 53 48 44 36 21 7 1 0 2 5 9 13 14 13 10 5 4 4 4 4 2 0 0 0 0 0 0 0 0 0 0 0
69 71 72 73 74 73 71 69 67 63 59 55 50 48 45 29 10 1 0 1 2 5 7 7 7 8 5 2 3 5 6 4 2 1 0 0 0 0 0 0 0 0 0
66 67 68 70 71 70 69 67 64 60 56 52 49 49 50 38 16 2 0 3 6 8 7 5 4 3 2 0 1 4 5 4 2 1 1 0 0 0 0 0 0 0 0
56 56 57 60 61 61 61 60 57 53 50 48 47 48 49 39 20 5 1 3 9 11 9 7 5 1 0 0 0 1 2 1 1 1 1 0 0 0 0 0 1 1 1
41 42 43 45 46 47 48 48 46 42 40 39 40 42 43 37 22 7 1 2 5 8 8 6 4 1 0 0 0 0 0 0 0 0 0 0 0 0 0 2 4 5 4
30 31 31 30 30 32 33 34 33 30 27 25 26 29 32 32 22 8 1 0 1 2 4 3 1 0 0 0 0 0 0 0 0 0 0 0 0 0 1 3 6 6 5
22 21 21 19 19 20 20 20 19 18 16 14 15 17 19 21 16 8 3 1 1 1 1 1 0 0 0 0 0 0 0 0 0 0 0 0 0 0 1 2 4 4 2
17 17 15 14 13 11 10 9 8 7 8 7 8 9 9 8 7 5 4 2 2 1 0 0 0 1 0 0 0 0 0 1 1 0 1 1 1 1 1 2 2 1 0
14 14 13 12 10 7 5 4 3 2 2 2 3 4 4 2 1 2 2 1 1 1 0 0 1 1 1 0 0 0 1 1 2 2 4 3 2 1 2 3 2 1 0
7 8 9 9 8 6 3 3 3 2 1 0 0 1 1 0 0 0 0 0 0 0 0 0 1 1 1 1 1 1 1 1 3 5 6 5 2 1 1 1 1 0 0
4 5 6 6 7 6 4 3 4 4 2 1 0 0 0 0 0 0 0 0 0 0 0 0 1 1 0 0 1 1 1 1 3 5 6 5 3 1 0 0 0 0 0
4 4 4 5 5 5 4 3 3 4 3 1 1 0 0 0 0 0 0 0 0 0 0 0 0 0 0 0 0 1 1 2 3 4 5 5 4 2 1 0 0 0 0
4 3 3 3 4 4 4 4 4 4 4 2 1 0 0 0 0 0 0 0 0 0 1 1 1 1 0 0 0 1 1 2 2 3 3 3 3 2 1 0 0 0 0
2 2 1 2 2 2 3 4 4 4 3 2 0 0 0 0 0 0 0 1 1 1 1 1 1 0 0 0 0 0 0 1 1 1 1 1 1 1 0 0 0 0 0
1 1 0 1 1 1 1 1 2 1 1 1 0 0 0 0 0 0 0 1 2 2 1 1 0 0 0 0 0 0 0 0 0 0 0 0 0 0 0 0 0 0 0
0 0 0 0 0 0 0 0 0 0 0 0 0 0 0 0 0 0 0 1 2 1 0 0 0 0 0 1 0 0 0 0 0 0 0 0 0 0 0 0 0 0 0
0 0 0 0 0 0 0 0 0 0 0 0 0 0 0 1 0 0 0 0 0 0 0 0 0 0 0 0 0 0 0 0 0 0 0 0 0 0 0 0 0 0 0
0 0 0 0 0 0 0 0 0 0 0 0 0 0 0 0 0 0 0 0 0 0 0 0 0 0 0 0 0 0 0 0 0 0 0 0 0 0 0 0 0 0 0
0 0 0 0 0 0 0 0 0 0 0 0 0 0 0 0 0 0 0 0 0 0 0 0 0 0 0 0 0 0 0 0 0 0 0 0 0 0 0 0 0 0 0
Wind_Speed
9 8 7 7 7 6 5 5 5 4 5 5 5 5 4 4 4 3 3 3 3 3 3 3 3 3 2 3 2 2 2 2 3 4 3 2 2 3 3 3 4 5 6
10 9 8 8 7 7 7 6 6 6 5 5 5 5 5 5 5 4 5 4 3 4 4 3 3 3 3 3 2 3 3 3 3 5 4 4 5 4 5 5 6 7 5
11 10 9 9 8 7 7 7 7 7 6 6 6 6 5 5 5 5 5 4 4 4 4 4 4 4 4 3 3 4 3 4 3 4 5 4 4 5 4 4 6 5 7
12 11 10 10 9 8 7 7 7 7 7 7 7 6 6 5 5 5 6 5 5 5 5 5 5 5 5 4 5 5 5 4 4 4 5 4 4 4 3 3 4 4 5
12 11 11 10 9 8 8 8 8 8 9 7 7 7 6 6 7 7 6 7 5 5 5 5 6 7 7 5 6 4 4 3 4 4 5 4 4 3 3 2 4 4 4
10 11 10 10 9 9 8 8 8 8 7 7 7 7 7 8 8 9 6 4 4 5 5 6 6 7 9 12 12 11 8 7 6 5 5 6 6 5 3 4 4 4 4
8 8 9 9 9 9 9 9 8 7 7 6 7 7 7 6 7 7 7 5 5 5 6 5 7 8 6 6 10 14 14 15 14 9 9 9 8 6 5 5 5 5 6
8 7 7 8 8 8 8 8 8 7 6 6 6 6 5 6 8 9 8 6 6 7 7 7 7 8 9 7 7 7 8 9 12 12 11 12 11 9 8 7 7 7 7
7 7 7 7 7 7 7 6 5 5 5 6 6 6 6 5 8 9 8 5 6 8 8 8 8 9 11 12 9 8 9 8 11 15 16 16 16 14 9 5 6 6 8
4 3 4 4 4 5 5 4 4 3 4 5 5 6 6 6 8 10 10 5 6 6 6 8 12 12 11 10 8 8 9 9 9 10 9 11 12 13 15 12 9 9 9
3 3 2 3 3 3 3 3 2 3 4 5 5 5 5 6 7 10 11 6 6 6 6 6 5 5 8 9 8 8 11 10 8 8 8 8 8 9 10 11 11 11 10
6 5 4 4 2 1 2 2 1 2 3 3 3 4 3 4 4 7 10 11 8 6 6 6 5 6 7 9 9 12 14 11 8 8 9 8 8 8 8 9 11 12 11
6 6 5 4 2 2 1 2 2 2 2 2 2 3 3 2 2 4 6 9 10 7 7 9 10 12 12 10 14 16 12 9 8 10 10 9 8 8 7 6 7 9 11
5 4 3 3 2 1 1 0 1 1 2 2 2 2 2 1 0 0 1 3 6 7 7 8 11 13 13 13 13 11 10 10 10 10 9 8 7 7 6 6 6 6 7
3 2 2 2 1 0 0 0 0 0 0 1 2 2 2 2 1 1 2 2 3 3 5 6 7 8 8 8 8 8 8 8 9 10 9 9 8 7 7 6 5 5 6
3 2 1 1 0 1 1 2 2 3 4 4 4 3 2 3 4 5 5 7 8 6 4 7 9 9 9 9 8 8 7 7 7 7 7 8 8 8 7 6 6 6 7
3 2 2 1 1 2 2 2 2 3 6 7 8 8 8 8 8 9 9 9 9 6 5 8 9 9 9 8 8 8 8 7 6 6 7 7 7 7 7 7 7 7 7
3 1 2 2 2 2 3 3 3 2 2 3 6 10 11 11 11 12 10 6 7 6 7 8 8 8 7 7 7 7 7 6 6 6 7 7 7 7 8 8 7 8 8
3 2 2 3 4 4 3 4 3 3 3 4 4 3 6 8 10 12 8 6 8 8 7 7 7 7 7 7 7 6 7 6 7 7 7 7 7 7 8 7 7 10 9
3 4 4 4 5 5 4 4 4 4 4 4 5 4 3 3 5 6 5 5 6 7 7 7 7 7 8 7 7 7 7 7 7 7 7 7 7 7 8 8 7 8 7
5 4 5 5 5 5 4 4 5 5 6 5 5 4 4 5 7 7 7 5 6 7 7 7 7 8 8 7 7 8 9 8 7 7 7 7 7 6 6 7 8 8 8
7 7 6 5 4 4 4 5 6 6 7 7 6 6 6 6 7 7 6 6 6 6 7 7 8 8 7 7 7 7 8 8 8 8 7 7 7 7 7 7 7 7 7
7 8 7 6 5 5 5 6 6 6 6 7 7 7 6 6 7 7 7 7 7 7 7 7 8 8 7 7 7 7 8 8 7 7 7 7 7 7 7 7 9 9 9
8 8 8 7 6 6 6 6 6 6 7 7 7 7 7 6 7 8 8 7 8 8 8 7 8 11 13 10 7 7 6 6 7 7 9 8 9 8 8 8 9 10 10
9 9 8 8 7 6 6 6 7 6 7 7 7 7 8 7 8 8 7 7 9 9 11 10 8 9 12 14 12 8 6 7 7 7 8 8 9 10 9 10 9 9 9
9 9 8 8 7 6 6 6 7 7 7 7 7 7 8 8 8 8 8 8 8 9 10 10 11 12 14 11 11 8 6 7 7 7 7 8 9 9 9 8 10 9 10
Wind_Direction
175 185 173 176 180 180 183 172 162 157 151 161 167 173 180 182 181 194 242 207 207 223 243 228 223 254 286 303 295 277 269 274 283 295 302 311 293 268 264 255 265 255 241
179 180 177 179 180 183 185 176 168 170 169 175 179 186 198 193 189 197 228 230 219 225 235 240 243 247 232 255 278 286 281 270 261 276 285 282 274 260 246 240 260 269 269
182 183 183 183 184 190 185 176 173 174 182 185 187 197 208 208 197 203 216 234 235 236 237 236 239 247 252 246 255 265 277 283 279 275 278 271 266 259 249 251 258 263 270
182 185 185 186 187 189 188 182 182 183 190 195 194 202 209 217 214 209 212 221 229 236 240 241 241 240 241 240 251 247 253 265 270 270 268 267 264 262 250 247 265 260 269
181 185 185 185 187 188 189 189 188 192 199 198 199 203 210 217 219 213 217 223 220 230 239 241 244 243 238 237 252 256 269 269 274 277 277 279 275 282 280 274 275 277 270
182 187 184 184 189 192 190 191 193 196 203 197 202 207 214 225 214 205 207 237 237 237 242 244 250 243 235 231 236 241 241 249 258 266 276 276 280 285 289 289 287 287 283
184 187 183 186 191 194 196 193 195 197 202 205 207 212 221 219 201 197 206 223 248 252 252 251 258 261 249 234 232 235 241 242 238 243 257 263 270 276 285 288 280 277 274
183 189 187 189 192 192 197 194 192 196 199 203 208 218 224 223 204 205 209 225 245 252 253 250 250 258 262 258 259 252 239 238 232 230 237 245 250 250 251 257 261 268 264
185 189 189 188 190 189 193 195 190 193 200 205 211 215 218 221 204 207 205 231 245 251 254 256 252 252 250 248 248 254 258 258 256 247 228 232 238 245 246 256 260 265 270
165 171 179 169 172 179 182 185 187 190 209 215 218 218 219 222 210 208 207 233 251 259 259 257 255 254 255 248 245 252 257 258 264 273 260 246 244 246 240 234 242 250 259
102 104 111 137 150 166 163 168 183 199 214 219 226 226 228 229 212 206 204 221 246 260 267 269 270 270 260 255 246 250 254 261 269 267 265 257 244 238 235 226 221 229 242
82 79 73 72 89 145 134 146 166 226 235 233 240 248 247 237 221 215 211 220 243 263 272 281 288 308 300 279 265 260 259 262 264 263 261 259 255 249 239 230 222 220 226
73 81 82 89 84 64 113 166 194 220 236 239 246 255 260 256 222 207 215 233 247 255 271 283 293 294 291 278 260 258 258 255 252 253 254 254 252 252 251 243 233 226 228
64 67 70 73 80 70 93 153 210 223 233 255 266 262 269 284 340 85 257 261 260 258 269 285 284 275 269 265 266 258 244 240 242 248 251 252 251 252 252 248 242 237 240
64 69 74 65 26 47 105 253 213 134 142 240 281 301 302 295 289 259 272 291 299 308 311 292 284 280 271 265 261 256 249 241 239 244 251 254 254 256 253 248 246 248 252
43 34 32 94 311 260 228 236 229 217 199 210 226 241 260 238 245 255 259 263 269 277 283 278 278 277 277 276 275 272 263 256 251 248 249 254 256 256 257 254 246 244 247
14 356 336 328 314 292 285 271 261 238 226 234 240 243 244 254 261 264 266 275 279 266 260 269 271 272 273 274 273 273 273 269 264 261 258 255 256 258 259 257 252 248 246
332 350 315 320 328 310 295 289 282 276 273 263 239 236 242 248 257 264 271 292 285 261 260 268 274 277 281 284 285 286 286 287 281 276 271 267 262 260 259 257 256 253 253
322 325 335 328 304 295 289 288 297 305 302 298 297 266 235 247 259 265 264 260 274 283 288 292 294 296 293 290 290 287 286 285 285 282 277 273 271 270 266 261 260 261 256
296 284 278 285 290 294 294 300 309 310 305 303 305 314 318 295 288 284 266 257 271 285 292 297 301 302 302 297 292 288 287 285 283 279 277 274 272 270 270 269 266 264 258
311 297 259 269 285 298 305 306 305 304 305 307 310 317 318 302 293 292 296 295 295 299 304 307 309 306 303 303 302 299 297 295 293 288 285 282 278 276 275 274 272 268 266
307 305 299 294 300 303 310 307 305 305 305 307 309 305 294 293 299 302 307 310 312 311 310 306 303 300 299 299 299 296 296 295 293 290 286 285 283 281 279 278 277 275 269
293 296 300 303 307 309 302 302 304 301 303 307 309 309 309 309 311 311 312 313 312 310 308 304 301 300 300 300 298 294 292 292 293 296 297 295 291 285 280 278 276 276 272
305 306 307 308 308 306 306 305 304 306 308 311 312 311 310 309 309 311 313 313 312 307 303 301 300 302 303 303 299 299 304 311 311 303 299 294 289 283 278 275 274 276 276
307 310 309 309 311 312 313 313 312 311 313 314 313 313 313 312 310 309 310 312 312 311 311 310 305 306 308 308 307 310 320 318 311 308 301 291 286 284 280 279 275 274 273
310 311 312 314 318 324 324 323 322 321 318 316 317 317 314 312 312 313 314 313 313 311 307 304 305 311 313 311 314 318 308 302 301 296 291 286 283 280 281 278 277 275 273